This demonstration page uses our WeatherBlox Daily Observations layout. Learn more.

Left ArrowRight Arrow

Hourly Observations for May 5, 2018

Temp ( °F °C ) Dew Point ( °F °C ) Humidity (%) Winds ( mph kmh ) Pressure ( in mb ) Visibility ( mi km ) Precip ( " mm )
12:51 am 00:51 Clear 62 16.7 14 -10 15 15 ESE 5 7 30.00 1016 10 16 0.00 0.00
1:51 am 01:51 Clear 60 15.6 15 -9.4 17 17 SSE 5 7 29.99 1016 10 16 0.00 0.00
2:51 am 02:51 Clear 58 14.4 15 -9.4 18 18 ESE 7 11 30.00 1016 10 16 0.00 0.00
3:51 am 03:51 Clear 68 20 14 -10 12 12 E 10 17 30.00 1016 10 16 0.00 0.00
4:51 am 04:51 Clear 63 17.2 17 -8.3 17 17 E 12 19 30.01 1016 10 16 0.00 0.00
5:51 am 05:51 Sunny 59 15 18 -7.8 20 20 ESE 6 9 30.03 1017 10 16 0.00 0.00
6:51 am 06:51 Sunny 68 20 18 -7.8 15 15 ESE 10 17 30.05 1018 10 16 0.00 0.00
7:51 am 07:51 Sunny 75 23.9 21 -6.1 13 13 ESE 12 19 30.05 1018 10 16 0.00 0.00
8:51 am 08:51 Sunny 79 26.1 23 -5 12 12 E 14 22 30.06 1018 10 16 0.00 0.00
9:51 am 09:51 Sunny 82 27.8 23 -5 11 11 ESE 14 22 30.06 1018 10 16 0.00 0.00
10:51 am 10:51 Sunny 85 29.4 21 -6.1 9 9 SE 10 17 30.02 1017 10 16 0.00 0.00
11:51 am 11:51 Sunny 89 31.7 18 -7.8 7 7 SSE 15 24 29.98 1015 10 16 0.00 0.00
12:51 pm 12:51 Sunny 91 32.8 14 -10 6 6 ESE 16 26 29.94 1014 10 16 0.00 0.00
1:51 pm 13:51 Sunny 90 32.2 14 -10 6 6 E 16 26 29.92 1013 10 16 0.00 0.00
2:51 pm 14:51 Sunny 91 32.8 14 -10 6 6 E 16 26 29.89 1012 10 16 0.00 0.00
3:51 pm 15:51 Sunny 92 33.3 15 -9.4 6 6 ESE 13 20 29.86 1011 10 16 0.00 0.00
4:51 pm 16:51 Sunny 91 32.8 14 -10 6 6 ESE 15 24 29.86 1011 10 16 0.00 0.00
5:51 pm 17:51 Sunny 89 31.7 14 -10 6 6 ESE 10 17 29.86 1011 10 16 0.00 0.00
6:51 pm 18:51 Sunny 87 30.6 16 -8.9 7 7 E 9 15 29.85 1011 10 16 0.00 0.00
7:51 pm 19:51 Clear 79 26.1 17 -8.3 10 10 E 7 11 29.88 1012 10 16 0.00 0.00
8:51 pm 20:51 Clear 77 25 18 -7.8 11 11 E 8 13 29.88 1012 10 16 0.00 0.00
9:51 pm 21:51 Clear 73 22.8 18 -7.8 12 12 S 3 6 29.91 1013 10 16 0.00 0.00
10:51 pm 22:51 Clear 72 22.2 18 -7.8 13 13 S 6 9 29.91 1013 10 16 0.00 0.00
11:51 pm 23:51 Clear 73 22.8 17 -8.3 12 12 ESE 7 11 29.91 1013 10 16 0.00 0.00

Powered by AerisWeather